Tracking 29892 objects as of 21-Nov-2024
HD Live streaming from Space Station
objects crossing your sky now

STARLINK-30563

Track STARLINK-30563 now!
10-day predictions
STARLINK-30563 is classified as:


NORAD ID: 58042
Int'l Code: 2023-156Q
Perigee: 469.5 km
Apogee: 471.2 km
Inclination: 53.2 °
Period: 93.9 minutes
Semi major axis: 6841 km
RCS: Unknown
Launch date: October 9, 2023
Source: United States (US)
Launch site: AIR FORCE WESTERN TEST RANGE (AFWTR)
Your satellite tracking list
Your tracking list is empty




NASA's NSSDC Master Catalog

Two Line Element Set (TLE):
1 58042U 23156Q   24324.85443221  .00001199  00000-0  46853-4 0  9990
2 58042  53.1597 128.2425 0001208  76.6184 283.4953 15.34223690 63556
Source of the keplerian elements: AFSPC